Time,TemperatureF,DewpointF,PressureIn,WindDirection,WindDirectionDegrees,WindSpeedMPH,WindSpeedGustMPH,Humidity,HourlyPrecipIn,Conditions,Clouds,dailyrainin,SoftwareType,DateUTC
2013-03-16 00:02:00,29.0,22.0,29.87,WNW,297,0.0,0.0,76,0.00,,,0.00,,2013-03-16 04:02:00,
2013-03-16 00:13:00,29.0,22.0,29.87,WNW,297,0.0,0.0,76,0.00,,,0.00,,2013-03-16 04:13:00,
2013-03-16 00:23:00,30.0,23.0,29.87,WNW,297,0.0,0.0,76,0.00,,,0.00,,2013-03-16 04:23:00,
2013-03-16 00:33:00,30.0,23.0,29.87,WNW,297,0.0,0.0,75,0.00,,,0.00,,2013-03-16 04:33:00,
2013-03-16 00:43:00,30.0,23.0,29.87,WNW,297,0.0,0.0,75,0.00,,,0.00,,2013-03-16 04:43:00,
2013-03-16 00:53:00,30.0,23.0,29.87,NNE,15,3.0,4.0,76,0.00,,,0.00,,2013-03-16 04:53:00,
2013-03-16 01:02:00,30.0,23.0,29.87,NE,53,2.0,3.0,75,0.00,,,0.00,,2013-03-16 05:02:00,
2013-03-16 01:12:00,30.0,23.0,29.87,NE,53,2.0,3.0,75,0.00,,,0.00,,2013-03-16 05:12:00,
2013-03-16 01:22:00,30.0,22.0,29.87,NE,49,1.0,3.0,73,0.00,,,0.00,,2013-03-16 05:22:00,
2013-03-16 01:32:00,30.0,22.0,29.87,NE,37,1.0,5.0,73,0.00,,,0.00,,2013-03-16 05:32:00,
2013-03-16 01:42:00,30.0,22.0,29.87,NE,37,1.0,5.0,73,0.00,,,0.00,,2013-03-16 05:42:00,
2013-03-16 01:53:00,30.0,22.0,29.87,NNE,15,0.0,5.0,71,0.00,,,0.00,,2013-03-16 05:53:00,
2013-03-16 02:02:00,30.0,21.0,29.87,NNE,15,3.0,9.0,70,0.00,,,0.00,,2013-03-16 06:02:00,
2013-03-16 02:12:00,30.0,21.0,29.87,NNE,15,3.0,9.0,70,0.00,,,0.00,,2013-03-16 06:12:00,
2013-03-16 02:22:00,30.0,21.0,29.86,NE,42,0.0,5.0,70,0.00,,,0.00,,2013-03-16 06:22:00,
2013-03-16 02:32:00,30.0,21.0,29.86,NE,43,0.0,5.0,70,0.00,,,0.00,,2013-03-16 06:32:00,
2013-03-16 02:42:00,30.0,21.0,29.86,NE,43,0.0,5.0,70,0.00,,,0.00,,2013-03-16 06:42:00,
2013-03-16 02:52:00,30.0,21.0,29.86,NE,46,3.0,5.0,70,0.00,,,0.00,,2013-03-16 06:52:00,
2013-03-16 03:02:00,29.0,20.0,29.86,NE,43,3.0,7.0,69,0.00,,,0.00,,2013-03-16 07:02:00,
2013-03-16 03:12:00,29.0,20.0,29.86,NE,43,3.0,7.0,69,0.00,,,0.00,,2013-03-16 07:12:00,
2013-03-16 03:22:00,29.0,20.0,29.86,NE,40,4.0,7.0,69,0.00,,,0.00,,2013-03-16 07:22:00,
2013-03-16 03:32:00,29.0,20.0,29.85,NE,41,4.0,9.0,69,0.00,,,0.00,,2013-03-16 07:32:00,
2013-03-16 03:42:00,29.0,20.0,29.85,NE,41,4.0,9.0,69,0.00,,,0.00,,2013-03-16 07:42:00,
2013-03-16 03:52:00,29.0,20.0,29.85,NE,54,5.0,12.0,68,0.00,,,0.00,,2013-03-16 07:52:00,
2013-03-16 04:03:00,29.0,20.0,29.85,ENE,70,4.0,10.0,69,0.00,,,0.00,,2013-03-16 08:03:00,
2013-03-16 04:12:00,29.0,20.0,29.85,ENE,70,4.0,10.0,69,0.00,,,0.00,,2013-03-16 08:12:00,
2013-03-16 04:23:00,28.0,20.0,29.84,NE,49,1.0,7.0,70,0.00,,,0.00,,2013-03-16 08:23:00,
2013-03-16 04:32:00,28.0,19.0,29.84,ENE,57,5.0,7.0,69,0.00,,,0.00,,2013-03-16 08:32:00,
2013-03-16 04:42:00,28.0,19.0,29.84,ENE,57,5.0,7.0,69,0.00,,,0.00,,2013-03-16 08:42:00,
2013-03-16 04:52:00,28.0,20.0,29.84,ENE,69,4.0,9.0,70,0.00,,,0.00,,2013-03-16 08:52:00,
2013-03-16 05:02:00,28.0,19.0,29.83,ENE,76,3.0,6.0,69,0.00,,,0.00,,2013-03-16 09:02:00,
2013-03-16 05:12:00,28.0,19.0,29.83,ENE,76,3.0,6.0,69,0.00,,,0.00,,2013-03-16 09:12:00,
2013-03-16 05:22:00,28.0,19.0,29.83,ENE,61,4.0,9.0,68,0.00,,,0.00,,2013-03-16 09:22:00,
2013-03-16 05:33:00,28.0,19.0,29.83,ENE,63,0.0,7.0,68,0.00,,,0.00,,2013-03-16 09:33:00,
2013-03-16 05:42:00,28.0,19.0,29.83,ENE,63,0.0,7.0,68,0.00,,,0.00,,2013-03-16 09:42:00,
2013-03-16 05:53:00,28.0,19.0,29.83,ENE,68,3.0,7.0,69,0.00,,,0.00,,2013-03-16 09:53:00,
2013-03-16 06:03:00,28.0,19.0,29.83,NE,50,4.0,6.0,69,0.00,,,0.00,,2013-03-16 10:03:00,
2013-03-16 06:12:00,28.0,19.0,29.83,NE,50,4.0,6.0,69,0.00,,,0.00,,2013-03-16 10:12:00,
2013-03-16 06:23:00,28.0,20.0,29.85,East,80,1.0,6.0,70,0.00,,,0.00,,2013-03-16 10:23:00,
2013-03-16 06:32:00,28.0,20.0,29.85,ENE,72,3.0,7.0,70,0.00,,,0.00,,2013-03-16 10:32:00,
2013-03-16 06:42:00,28.0,20.0,29.85,ENE,72,3.0,7.0,70,0.00,,,0.00,,2013-03-16 10:42:00,
2013-03-16 06:53:00,27.0,19.0,29.84,ENE,65,6.0,12.0,70,0.00,,,0.00,,2013-03-16 10:53:00,
2013-03-16 07:03:00,27.0,19.0,29.84,ENE,59,3.0,7.0,71,0.00,,,0.00,,2013-03-16 11:03:00,
2013-03-16 07:12:00,27.0,19.0,29.84,ENE,59,3.0,7.0,71,0.00,,,0.00,,2013-03-16 11:12:00,
2013-03-16 07:22:00,27.0,18.0,29.84,NE,51,7.0,10.0,68,0.00,,,0.00,,2013-03-16 11:22:00,
2013-03-16 07:32:00,27.0,18.0,29.84,ENE,58,5.0,10.0,67,0.00,,,0.00,,2013-03-16 11:32:00,
2013-03-16 07:43:00,27.0,18.0,29.84,ENE,58,5.0,10.0,67,0.00,,,0.00,,2013-03-16 11:43:00,
2013-03-16 07:53:00,27.0,18.0,29.84,ENE,64,6.0,9.0,67,0.00,,,0.00,,2013-03-16 11:53:00,
2013-03-16 08:02:00,27.0,18.0,29.84,ENE,65,3.0,7.0,68,0.00,,,0.00,,2013-03-16 12:02:00,
2013-03-16 08:12:00,27.0,18.0,29.84,ENE,65,3.0,7.0,68,0.00,,,0.00,,2013-03-16 12:12:00,
2013-03-16 08:22:00,27.0,18.0,29.85,ENE,62,2.0,5.0,69,0.00,,,0.00,,2013-03-16 12:22:00,
2013-03-16 08:32:00,27.0,19.0,29.84,ENE,67,3.0,6.0,70,0.00,,,0.00,,2013-03-16 12:32:00,
2013-03-16 08:42:00,27.0,19.0,29.84,ENE,67,3.0,6.0,70,0.00,,,0.00,,2013-03-16 12:42:00,
2013-03-16 08:53:00,27.0,18.0,29.84,East,98,2.0,11.0,69,0.00,,,0.00,,2013-03-16 12:53:00,
2013-03-16 09:02:00,27.0,18.0,29.84,ENE,69,6.0,11.0,68,0.00,,,0.00,,2013-03-16 13:02:00,
2013-03-16 09:12:00,27.0,18.0,29.84,ENE,69,6.0,11.0,68,0.00,,,0.00,,2013-03-16 13:12:00,
2013-03-16 09:22:00,27.0,18.0,29.83,ENE,58,4.0,9.0,68,0.00,,,0.00,,2013-03-16 13:22:00,
2013-03-16 09:32:00,27.0,18.0,29.84,ENE,77,3.0,9.0,68,0.00,,,0.00,,2013-03-16 13:32:00,
2013-03-16 09:42:00,27.0,18.0,29.84,ENE,77,3.0,9.0,68,0.00,,,0.00,,2013-03-16 13:42:00,
2013-03-16 09:53:00,27.0,20.0,29.84,ENE,74,4.0,9.0,73,0.00,,,0.00,,2013-03-16 13:53:00,
2013-03-16 10:02:00,27.0,20.0,29.83,SE,130,5.0,12.0,74,0.00,,,0.00,,2013-03-16 14:02:00,
2013-03-16 10:12:00,27.0,20.0,29.83,SE,130,5.0,12.0,74,0.00,,,0.00,,2013-03-16 14:12:00,
2013-03-16 10:22:00,27.0,21.0,29.85,ENE,61,6.0,9.0,79,0.00,,,0.00,,2013-03-16 14:22:00,
2013-03-16 10:32:00,27.0,22.0,29.85,NE,53,3.0,9.0,81,0.00,,,0.00,,2013-03-16 14:32:00,
2013-03-16 10:42:00,27.0,22.0,29.85,NE,53,3.0,9.0,81,0.00,,,0.00,,2013-03-16 14:42:00,
2013-03-16 10:52:00,27.0,22.0,29.84,East,92,4.0,10.0,81,0.00,,,0.00,,2013-03-16 14:52:00,
2013-03-16 11:03:00,27.0,22.0,29.85,NE,48,4.0,10.0,81,0.00,,,0.00,,2013-03-16 15:03:00,
2013-03-16 11:13:00,27.0,22.0,29.85,NE,48,4.0,10.0,81,0.00,,,0.00,,2013-03-16 15:13:00,
2013-03-16 11:23:00,27.0,22.0,29.84,East,94,5.0,12.0,80,0.00,,,0.00,,2013-03-16 15:23:00,
2013-03-16 11:33:00,27.0,21.0,29.84,East,89,4.0,10.0,79,0.00,,,0.00,,2013-03-16 15:33:00,
2013-03-16 11:43:00,27.0,21.0,29.84,East,89,4.0,10.0,79,0.00,,,0.00,,2013-03-16 15:43:00,
2013-03-16 11:53:00,27.0,21.0,29.84,ENE,67,6.0,11.0,78,0.00,,,0.00,,2013-03-16 15:53:00,
2013-03-16 12:03:00,28.0,22.0,29.84,East,80,3.0,11.0,77,0.00,,,0.00,,2013-03-16 16:03:00,
2013-03-16 12:12:00,28.0,22.0,29.84,East,80,3.0,11.0,77,0.00,,,0.00,,2013-03-16 16:12:00,
2013-03-16 12:23:00,28.0,21.0,29.83,NNE,31,4.0,12.0,74,0.00,,,0.00,,2013-03-16 16:23:00,
2013-03-16 12:33:00,28.0,21.0,29.83,ENE,57,4.0,11.0,74,0.00,,,0.00,,2013-03-16 16:33:00,
2013-03-16 12:42:00,28.0,21.0,29.83,ENE,57,4.0,11.0,74,0.00,,,0.00,,2013-03-16 16:42:00,
2013-03-16 12:53:00,28.0,21.0,29.83,ENE,69,8.0,12.0,75,0.00,,,0.00,,2013-03-16 16:53:00,
2013-03-16 13:03:00,28.0,21.0,29.83,ENE,70,4.0,13.0,75,0.00,,,0.00,,2013-03-16 17:03:00,
2013-03-16 13:13:00,28.0,21.0,29.83,ENE,70,4.0,13.0,75,0.00,,,0.00,,2013-03-16 17:13:00,
2013-03-16 13:23:00,28.0,21.0,29.83,ENE,72,6.0,12.0,74,0.00,,,0.00,,2013-03-16 17:23:00,
2013-03-16 13:32:00,28.0,20.0,29.83,NE,53,5.0,11.0,73,0.00,,,0.00,,2013-03-16 17:32:00,
2013-03-16 13:42:00,28.0,20.0,29.83,NE,53,5.0,11.0,73,0.00,,,0.00,,2013-03-16 17:42:00,
2013-03-16 13:53:00,28.0,20.0,29.84,NE,51,4.0,7.0,73,0.00,,,0.00,,2013-03-16 17:53:00,
2013-03-16 14:02:00,28.0,21.0,29.83,ENE,58,4.0,12.0,74,0.00,,,0.00,,2013-03-16 18:02:00,
2013-03-16 14:13:00,28.0,21.0,29.83,ENE,58,4.0,12.0,74,0.00,,,0.00,,2013-03-16 18:13:00,
2013-03-16 14:23:00,28.0,21.0,29.83,ENE,73,7.0,13.0,75,0.00,,,0.00,,2013-03-16 18:23:00,
2013-03-16 14:33:00,28.0,22.0,29.83,NE,40,6.0,11.0,78,0.00,,,0.00,,2013-03-16 18:33:00,
2013-03-16 14:43:00,28.0,22.0,29.83,NE,40,6.0,11.0,78,0.00,,,0.00,,2013-03-16 18:43:00,
2013-03-16 14:53:00,28.0,22.0,29.83,NE,56,6.0,14.0,79,0.00,,,0.00,,2013-03-16 18:53:00,
2013-03-16 15:02:00,28.0,23.0,29.83,ENE,59,8.0,11.0,81,0.00,,,0.00,,2013-03-16 19:02:00,
2013-03-16 15:12:00,28.0,23.0,29.83,ENE,59,8.0,11.0,81,0.00,,,0.00,,2013-03-16 19:12:00,
2013-03-16 15:22:00,27.0,22.0,29.83,NE,47,5.0,14.0,80,0.00,,,0.00,,2013-03-16 19:22:00,
2013-03-16 15:32:00,28.0,23.0,29.83,East,79,4.0,10.0,81,0.00,,,0.00,,2013-03-16 19:32:00,
2013-03-16 15:42:00,28.0,23.0,29.83,East,79,4.0,10.0,81,0.00,,,0.00,,2013-03-16 19:42:00,
2013-03-16 15:53:00,28.0,22.0,29.83,ENE,61,4.0,10.0,79,0.00,,,0.00,,2013-03-16 19:53:00,
2013-03-16 16:02:00,28.0,22.0,29.84,ENE,58,4.0,11.0,79,0.00,,,0.00,,2013-03-16 20:02:00,
2013-03-16 16:12:00,28.0,22.0,29.84,ENE,58,4.0,11.0,79,0.00,,,0.00,,2013-03-16 20:12:00,
2013-03-16 16:22:00,27.0,21.0,29.84,ENE,61,9.0,13.0,78,0.00,,,0.00,,2013-03-16 20:22:00,
2013-03-16 16:42:00,27.0,21.0,29.85,NE,49,7.0,11.0,79,0.00,,,0.00,,2013-03-16 20:42:00,
2013-03-16 16:52:00,27.0,21.0,29.85,NE,51,5.0,12.0,77,0.00,,,0.00,,2013-03-16 20:52:00,
2013-03-16 17:02:00,27.0,21.0,29.85,ENE,57,8.0,12.0,77,0.00,,,0.00,,2013-03-16 21:02:00,
2013-03-16 17:12:00,27.0,21.0,29.85,ENE,57,8.0,12.0,77,0.00,,,0.00,,2013-03-16 21:12:00,
2013-03-16 17:22:00,27.0,21.0,29.85,NE,46,5.0,11.0,78,0.00,,,0.00,,2013-03-16 21:22:00,
2013-03-16 17:33:00,27.0,21.0,29.87,NE,46,6.0,10.0,77,0.00,,,0.00,,2013-03-16 21:33:00,
2013-03-16 17:43:00,27.0,21.0,29.87,NE,46,6.0,10.0,77,0.00,,,0.00,,2013-03-16 21:43:00,
2013-03-16 17:53:00,27.0,20.0,29.87,NE,41,4.0,12.0,76,0.00,,,0.00,,2013-03-16 21:53:00,
2013-03-16 18:03:00,27.0,20.0,29.87,NE,49,5.0,7.0,76,0.00,,,0.00,,2013-03-16 22:03:00,
2013-03-16 18:13:00,27.0,20.0,29.87,NE,49,5.0,7.0,76,0.00,,,0.00,,2013-03-16 22:13:00,
2013-03-16 18:23:00,27.0,20.0,29.88,NE,36,1.0,7.0,74,0.00,,,0.00,,2013-03-16 22:23:00,
2013-03-16 18:33:00,26.0,19.0,29.88,NE,38,5.0,8.0,75,0.00,,,0.00,,2013-03-16 22:33:00,
2013-03-16 18:42:00,26.0,19.0,29.88,NE,38,5.0,8.0,75,0.00,,,0.00,,2013-03-16 22:42:00,
2013-03-16 18:53:00,26.0,18.0,29.89,ENE,61,3.0,9.0,72,0.00,,,0.00,,2013-03-16 22:53:00,
2013-03-16 19:02:00,26.0,18.0,29.89,NE,51,3.0,5.0,71,0.00,,,0.00,,2013-03-16 23:02:00,
2013-03-16 19:13:00,26.0,18.0,29.89,NE,51,3.0,5.0,71,0.00,,,0.00,,2013-03-16 23:13:00,
2013-03-16 19:23:00,26.0,18.0,29.89,NE,46,0.0,5.0,72,0.00,,,0.00,,2013-03-16 23:23:00,
2013-03-16 19:33:00,25.0,17.0,29.90,ENE,60,1.0,4.0,71,0.00,,,0.00,,2013-03-16 23:33:00,
2013-03-16 19:42:00,25.0,17.0,29.90,ENE,60,1.0,4.0,71,0.00,,,0.00,,2013-03-16 23:42:00,
2013-03-16 19:53:00,25.0,17.0,29.91,ENE,60,0.0,0.0,72,0.00,,,0.00,,2013-03-16 23:53:00,
2013-03-16 20:02:00,24.0,17.0,29.91,ENE,60,0.0,0.0,73,0.00,,,0.00,,2013-03-17 00:02:00,
2013-03-16 20:12:00,24.0,17.0,29.91,ENE,60,0.0,0.0,73,0.00,,,0.00,,2013-03-17 00:12:00,
2013-03-16 20:22:00,24.0,17.0,29.93,ENE,60,0.0,0.0,74,0.00,,,0.00,,2013-03-17 00:22:00,
2013-03-16 20:33:00,23.0,16.0,29.94,ENE,60,0.0,0.0,75,0.00,,,0.00,,2013-03-17 00:33:00,
2013-03-16 20:42:00,23.0,16.0,29.94,ENE,60,0.0,0.0,75,0.00,,,0.00,,2013-03-17 00:42:00,
2013-03-16 20:52:00,23.0,17.0,29.94,ENE,60,0.0,0.0,78,0.00,,,0.00,,2013-03-17 00:52:00,
2013-03-16 21:02:00,23.0,18.0,29.94,East,99,0.0,0.0,80,0.00,,,0.00,,2013-03-17 01:02:00,
2013-03-16 21:12:00,23.0,18.0,29.94,East,99,0.0,0.0,80,0.00,,,0.00,,2013-03-17 01:12:00,
2013-03-16 21:22:00,22.0,17.0,29.94,ESE,113,0.0,0.0,80,0.00,,,0.00,,2013-03-17 01:22:00,
2013-03-16 21:32:00,22.0,17.0,29.95,ESE,113,0.0,0.0,80,0.00,,,0.00,,2013-03-17 01:32:00,
2013-03-16 21:42:00,22.0,17.0,29.95,ESE,113,0.0,0.0,80,0.00,,,0.00,,2013-03-17 01:42:00,
2013-03-16 21:53:00,22.0,18.0,29.94,ESE,113,0.0,0.0,83,0.00,,,0.00,,2013-03-17 01:53:00,
2013-03-16 22:03:00,22.0,18.0,29.94,ESE,113,0.0,0.0,84,0.00,,,0.00,,2013-03-17 02:03:00,
2013-03-16 22:13:00,22.0,18.0,29.94,ESE,113,0.0,0.0,84,0.00,,,0.00,,2013-03-17 02:13:00,
2013-03-16 22:22:00,22.0,18.0,29.96,SE,138,0.0,0.0,83,0.00,,,0.00,,2013-03-17 02:22:00,
2013-03-16 22:33:00,22.0,18.0,29.96,SSE,153,1.0,2.0,83,0.00,,,0.00,,2013-03-17 02:33:00,
2013-03-16 22:43:00,22.0,18.0,29.96,SSE,153,1.0,2.0,83,0.00,,,0.00,,2013-03-17 02:43:00,
2013-03-16 22:53:00,23.0,18.0,29.96,SSW,198,0.0,3.0,81,0.00,,,0.00,,2013-03-17 02:53:00,
2013-03-16 23:03:00,23.0,18.0,29.96,SW,219,0.0,4.0,80,0.00,,,0.00,,2013-03-17 03:03:00,
2013-03-16 23:12:00,23.0,18.0,29.96,SW,219,0.0,4.0,80,0.00,,,0.00,,2013-03-17 03:12:00,
2013-03-16 23:23:00,23.0,17.0,29.97,SSW,211,2.0,4.0,79,0.00,,,0.00,,2013-03-17 03:23:00,
2013-03-16 23:33:00,23.0,17.0,29.96,SSW,210,0.0,4.0,79,0.00,,,0.00,,2013-03-17 03:33:00,
2013-03-16 23:43:00,23.0,17.0,29.96,SSW,210,0.0,4.0,79,0.00,,,0.00,,2013-03-17 03:43:00,
2013-03-16 23:53:00,23.0,17.0,29.97,SW,231,3.0,6.0,79,0.00,,,0.00,,2013-03-17 03:53:00,